Location: Bavegemberg
(50.9500°N, 3.8833°E)
Time: 08:53:19
(UTC+00:00)

FENGYUN 1C DEB - Visible Passes

Search period start: 07 October 2024 00:00
Search period end: 17 October 2024 00:00
Orbit: 837 x 896 km, 98.9° (Epoch: 06 October)

Date Brightness Start Highest point End Pass type
(mag) Time Alt. Az. Time Alt. Az. Time Alt. Az.
07 Oct ? 17:39:58 10° E 17:43:47 20° NE 17:47:36 10° N visible
07 Oct ? 19:20:38 23° SSE 19:24:10 87° WSW 19:29:40 10° NNW visible
07 Oct ? 21:02:59 10° WSW 21:06:00 15° W 21:09:10 10° NW visible
08 Oct ? 17:33:08 10° E 17:36:40 18° NE 17:40:12 10° NNE visible
08 Oct ? 19:13:32 24° SSE 19:16:57 84° ENE 19:22:26 10° NNW visible
08 Oct ? 20:55:52 12° WSW 20:58:40 18° W 21:02:15 10° NW visible
09 Oct ? 19:06:24 24° SSE 19:09:44 75° ENE 19:15:11 10° NNW visible
09 Oct ? 20:48:45 15° WSW 20:51:21 20° W 20:55:17 10° NW visible
10 Oct ? 18:59:17 25° SE 19:02:32 66° ENE 19:07:56 10° N visible
10 Oct ? 20:41:38 17° SW 20:44:02 22° W 20:48:16 10° NW visible
11 Oct ? 18:52:10 25° SE 18:55:19 59° ENE 19:00:41 10° N visible
11 Oct ? 20:34:30 20° SW 20:36:44 25° W 20:41:12 10° NW visible
12 Oct ? 18:45:02 24° SE 18:48:07 52° ENE 18:53:25 10° N visible
12 Oct ? 20:27:23 23° SW 20:29:26 29° W 20:34:08 10° NW visible
13 Oct ? 18:37:54 23° SE 18:40:56 46° ENE 18:46:07 10° N visible
13 Oct ? 20:20:15 26° SW 20:22:08 32° W 20:27:00 10° NNW visible
14 Oct ? 18:30:46 22° ESE 18:33:45 41° ENE 18:38:50 10° N visible
14 Oct ? 20:13:07 29° SW 20:14:51 37° W 20:19:52 10° NNW visible
15 Oct ? 18:23:38 21° ESE 18:26:34 37° ENE 18:31:32 10° N visible
15 Oct ? 20:05:59 33° SW 20:07:33 41° W 20:12:43 10° NNW visible
16 Oct ? 18:16:30 20° ESE 18:19:24 33° ENE 18:24:14 10° N visible
16 Oct ? 19:58:50 38° SW 20:00:17 47° W 20:05:33 10° NNW visible
